This demonstration page uses our WeatherBlox Daily Observations layout. Learn more.

Left ArrowRight Arrow

31.31129, -92.44514

Hourly Observations for August 11, 2022

Temp ( °F °C ) Dew Point ( °F °C ) Humidity (%) Winds ( mph kmh ) Pressure ( in mb ) Visibility ( mi km ) Precip ( " mm )
12:53 am 00:53 Clear 75 23.9 72 22.2 90 90 Calm 30.05 1018 9 14 0.00 0.00
1:53 am 01:53 Cloudy 76 24.4 73 22.8 91 91 E 3 6 30.04 1017 9 14 0.00 0.00
2:53 am 02:53 Mostly Clear with Mist and Fog 75 23.9 73 22.8 94 94 Calm 30.02 1017 3 5 0.00 0.00
3:06 am 03:06 Mostly Clear with Mist and Fog 75 23.9 72 22.2 90 90 Calm 30.02 1017 2 3 0.00 0.00
3:12 am 03:12 Mostly Clear with Mist and Fog 75 23.9 72 22.2 90 90 Calm 30.02 1017 1 1 0.00 0.00
3:32 am 03:32 Mostly Clear with Fog 74 23.3 72 22.2 94 94 S 5 7 30.01 1016 0 0 0.00 0.00
3:53 am 03:53 Mostly Clear with Fog 74 23.3 72 22.2 94 94 Calm 30.02 1017 0 0 0.00 0.00
4:13 am 04:13 Mostly Clear with Fog 74 23.3 72 22.2 94 94 Calm 30.01 1016 0 0 0.00 0.00
4:33 am 04:33 Mostly Clear with Fog 74 23.3 72 22.2 94 94 Calm 30.01 1016 1 1 0.00 0.00
4:48 am 04:48 Mostly Clear with Fog 73 23 72 22 94 94 Calm 30.01 1016 0 0 0.00 0.00
4:53 am 04:53 Mostly Clear with Fog 74 23.3 72 22.2 94 94 Calm 30.02 1017 0 0 0.00 0.00
5:18 am 05:18 Mostly Clear with Mist and Fog 73 22.8 72 22.2 96 96 Calm 30.02 1017 1 1 0.00 0.00
5:44 am 05:44 Mostly Clear with Fog 74 23.3 72 22.2 94 94 Calm 30.02 1017 0 0 0.00 0.00
5:53 am 05:53 Mostly Clear with Fog 74 23.3 72 22.2 94 94 Calm 30.03 1017 0 0 0.00 0.00
6:27 am 06:27 Mostly Clear with Mist and Fog 74 23.3 72 22.2 94 94 Calm 30.02 1017 1 2 0.00 0.00
6:53 am 06:53 Cloudy with Mist and Fog 74 23.3 72 22.2 94 94 Calm 30.03 1017 3 4 0.00 0.00
7:34 am 07:34 Cloudy with Mist and Fog 75 23.9 73 22.8 94 94 E 3 6 30.03 1017 3 5 0.00 0.00
7:53 am 07:53 Cloudy with Mist and Fog 75 23.9 73 22.8 94 94 SE 5 7 30.04 1017 4 6 0.00 0.00
8:53 am 08:53 Cloudy with Mist and Fog 78 25.6 74 23.3 87 87 ESE 6 9 30.05 1018 5 8 0.00 0.00
9:11 am 09:11 Cloudy with Haze 79 26.1 73 22.8 82 82 ESE 3 6 30.04 1017 6 10 0.00 0.00
9:23 am 09:23 Cloudy 80 26.7 73 22.8 79 79 Calm 30.04 1017 7 11 0.00 0.00
9:38 am 09:38 Cloudy 80 26.7 73 22.8 79 79 ESE 3 6 30.04 1017 8 13 0.00 0.00
9:53 am 09:53 Mostly Cloudy 80 26.7 73 22.8 79 79 Calm 30.04 1017 9 14 0.00 0.00
10:00 am 10:00 Mostly Cloudy 82 27.8 73 22.8 74 74 Calm 30.03 1017 10 16 0.00 0.00
10:17 am 10:17 Mostly Cloudy 84 28.9 73 22.8 70 70 E 7 11 30.04 1017 10 16 0.00 0.00
10:39 am 10:39 Partly Cloudy 84 28.9 73 22.8 70 70 E 6 9 30.04 1017 10 16 0.00 0.00
10:53 am 10:53 Mostly Cloudy 86 30 73 22.8 65 65 VRB 5 7 30.04 1017 10 16 0.00 0.00
11:53 am 11:53 Mostly Sunny 87 30.6 72 22.2 61 61 E 8 13 30.03 1017 10 16 0.00 0.00
12:41 pm 12:41 Mostly Cloudy 90 32.2 72 22.2 56 56 ENE 9 15 30.00 1016 10 16 0.00 0.00
12:53 pm 12:53 Mostly Cloudy 89 31.7 72 22.2 57 57 ESE 7 11 30.01 1016 10 16 0.00 0.00
1:53 pm 13:53 Mostly Cloudy 91 32.8 73 22.8 56 56 NE 7 11 29.98 1015 10 16 0.00 0.00
2:53 pm 14:53 Mostly Cloudy 90 32.2 73 22.8 58 58 N 9 15 29.96 1015 10 16 0.00 0.00
3:53 pm 15:53 Mostly Cloudy 91 32.8 72 22.2 54 54 NNW 7 11 29.94 1014 10 16 0.01 0.13
4:53 pm 16:53 Partly Cloudy 89 31.7 74 23.3 61 61 NNE 12 19 29.93 1014 10 16 0.00 0.00
5:39 pm 17:39 Sunny with Thunderstorms 87 30.6 73 22.8 63 63 N 7 11 29.92 1013 10 16 0.00 0.00
5:57 pm 17:57 Mostly Sunny 88 31.1 73 22.8 61 61 N 7 11 29.92 1013 10 16 0.00 0.00
6:53 pm 18:53 Sunny 85 29.4 74 23.3 70 70 NE 3 6 29.93 1014 10 16 0.00 0.00
7:53 pm 19:53 Partly Cloudy 83 28.3 73 22.8 72 72 NE 3 6 29.95 1014 10 16 0.00 0.00
8:53 pm 20:53 Partly Cloudy 82 27.8 73 22.8 74 74 ENE 6 9 29.96 1015 10 16 0.00 0.00
9:53 pm 21:53 Clear 81 27.2 74 23.3 79 79 ESE 3 6 29.99 1016 10 16 0.00 0.00
10:53 pm 22:53 Mostly Cloudy 80 26.7 75 23.9 85 85 S 3 6 30.00 1016 10 16 0.00 0.00
11:53 pm 23:53 Mostly Clear 79 26.1 74 23.3 85 85 SSE 3 6 29.99 1016 10 16 0.00 0.00

Powered by AerisWeather